Flag for Russia Weather past 2 weeks in Pyatigorsk, Russia

Now
36 °F

Passing clouds.


Feels Like: 28 °F
Forecast: 31 / 43 °F
Wind: 10 mph from East

Location: Mineral'Nye Vody

Current Time: Mar 6, 2015 at 11:44:44 PM

Latest Report: Mar 6, 2015 at 11:00 PM


Visibility: N/A

Pressure: 30.30 "Hg

Humidity: 81%

Dew point: 30 °F

Location of PyatigorskLocation

Historic Weather in Pyatigorsk — Graph

°F

Pyatigorsk temperature yesterday

Maximum temperature yesterday: 50 °F (at 1:30 PM)
Minimum temperature yesterday: 34 °F (at 6:30 AM)
Average temperature yesterday: 40 °F

Past Weeks' High & Low Weather Summary

 TemperatureHumidityPressure
High54 °F (Mar 1, 2:00 PM)100% (Feb 21, 11:00 PM)30.39 "Hg (Feb 21, 11:00 PM)
Low18 °F (Feb 19, 10:00 PM)25% (Mar 6, 3:30 PM)29.86 "Hg (Feb 28, 10:30 AM)
Average35 °F86%30.13 "Hg
* Reported Feb 19 10:00 PM — Mar 6 10:30 PM, Pyatigorsk, Weather by CustomWeather, © 2015

Note: Actual official high and low records may vary slightly from our data, if they occured in-between our weather recording intervals... More about our weather records

Advertising

Pyatigorsk weather history for previous 24 hours

 ConditionsComfort  
Time TempWeatherWind HumidityBarometerVisibility
10:30 PM
Fri, Mar 6
36 °FPassing clouds.8 mph81%30.30 "HgN/A
10:00 PM36 °FPassing clouds.8 mph81%30.33 "HgN/A
9:30 PM36 °FPassing clouds.3 mph75%30.33 "HgN/A
9:00 PM36 °FPassing clouds.6 mph75%30.33 "HgN/A
8:30 PM39 °FPassing clouds.10 mph70%30.33 "HgN/A
8:00 PM37 °FPassing clouds.3 mph75%30.33 "HgN/A
7:30 PM37 °FPassing clouds.6 mph70%30.36 "HgN/A
7:00 PM43 °FScattered clouds.8 mph66%30.33 "HgN/A
6:30 PM43 °FScattered clouds.8 mph61%30.33 "HgN/A
6:00 PM45 °FScattered clouds.8 mph53%30.33 "HgN/A
5:30 PM46 °FPassing clouds.8 mph43%30.30 "HgN/A
5:00 PM48 °FPassing clouds.6 mph32%30.30 "HgN/A
4:30 PM50 °FPassing clouds.3 mph25%30.33 "HgN/A
4:00 PM50 °FScattered clouds.No wind25%30.33 "HgN/A
3:30 PM50 °FScattered clouds.No wind25%30.33 "HgN/A
3:00 PM52 °FScattered clouds.3 mph26%30.33 "HgN/A
2:30 PM50 °FScattered clouds.1 mph32%30.33 "HgN/A
2:00 PM48 °FScattered clouds.6 mph32%30.33 "HgN/A
1:30 PM50 °FScattered clouds.6 mph35%30.33 "HgN/A
1:00 PM48 °FBroken clouds.6 mph43%30.36 "HgN/A
12:30 PM46 °FBroken clouds.3 mph46%30.36 "HgN/A
12:00 PM45 °FBroken clouds.3 mph53%30.36 "HgN/A
11:30 AM45 °FBroken clouds.3 mph53%30.36 "HgN/A
11:00 AM45 °FBroken clouds.1 mph53%30.39 "HgN/A
10:30 AM41 °FBroken clouds.3 mph61%30.39 "HgN/A
10:00 AM41 °FBroken clouds.No wind66%30.39 "HgN/A
9:30 AM39 °FBroken clouds.1 mph70%30.39 "HgN/A
9:00 AM37 °FBroken clouds.3 mph75%30.39 "HgN/A
8:30 AM36 °FBroken clouds.1 mph81%30.39 "HgN/A
8:00 AM34 °FBroken clouds.3 mph87%30.39 "HgN/A
7:30 AM32 °FPartly cloudy.3 mph87%30.39 "HgN/A
7:00 AM30 °FPartly cloudy.6 mph86%30.39 "HgN/A
6:30 AM32 °FPassing clouds.6 mph80%30.39 "HgN/A
6:00 AM32 °FPassing clouds.8 mph87%30.39 "HgN/A
5:30 AM32 °FPassing clouds.6 mph87%30.39 "HgN/A
5:00 AM34 °FPassing clouds.6 mph81%30.36 "HgN/A
4:30 AM34 °FPassing clouds.8 mph81%30.36 "HgN/A
4:00 AM34 °FPassing clouds.6 mph81%30.36 "HgN/A
3:30 AM36 °FPassing clouds.10 mph75%30.36 "HgN/A
3:00 AM36 °FPassing clouds.10 mph81%30.36 "HgN/A
2:30 AM36 °FPassing clouds.10 mph81%30.36 "HgN/A
2:00 AM36 °FPassing clouds.13 mph87%30.36 "HgN/A
1:30 AM37 °FPassing clouds.10 mph81%30.36 "HgN/A
12:30 AM37 °FPassing clouds.8 mph75%30.33 "HgN/A
11:30 PM
Thu, Mar 5
37 °FPassing clouds.8 mph75%30.33 "HgN/A
11:00 PM36 °FPassing clouds.6 mph81%30.33 "HgN/A
Weather by CustomWeather, © 2015

See weather overviewHow to use our weather pages